User: anonymous   Login
Location: Unspecified
(0.0000°N, 0.0000°E)
Time: 04:14:18
(UTC+00:00)
Language:

DMSP B5D1-2 - Orbit

View from above orbital plane
View from above orbital plane
View from above satellite
View from above satellite

Ground track
Ground track

The orbit data is extracted from the following two-line orbital elements,

1 10033U 77044A   18260.88939936 0.00000040  00000-0  15635-4 0    02
2 10033  99.0903 140.1723 0038000 132.1359 227.8640 14.29235002    09
Epoch (UTC): 17 September 2018 21:20:44
Eccentricity: 0.0038000
inclination: 99.0903°
perigee height: 767 km
apogee height: 821 km
right ascension of ascending node: 140.1723°
argument of perigee: 132.1359°
revolutions per day: 14.29235002
mean anomaly at epoch: 227.8640°
orbit number at epoch: 0

The dashed part of the orbit path shows where the satellite is in the earth's shadow,  

DLR